User: anonymous   Login
Location: Potawatomi Wildlife Park
(41.2308°N, 86.1050°W)
Time: 14:32:23
(UTC-04:00)
Language:

SL-16 R/B - Orbit

View from above orbital plane
View from above orbital plane
View from above satellite
View from above satellite

Ground track
Ground track

The orbit data is extracted from the following two-line orbital elements,

1 27006U 01056F   16273.39121273 -.00000018  00000-0  27778-4 0  9999
2 27006  99.2750  57.1429 0013735 269.5806 143.7357 13.70973931740769
Epoch (UTC): 29 September 2016 09:23:20
Eccentricity: 0.0013735
inclination: 99.2750°
perigee height: 986 km
apogee height: 1006 km
right ascension of ascending node: 57.1429°
argument of perigee: 269.5806°
revolutions per day: 13.70973931
mean anomaly at epoch: 143.7357°
orbit number at epoch: 74076

The dashed part of the orbit path shows where the satellite is in the earth's shadow,  

DLR